This is the latest recevied weather packets stored in our database for station/object UB2FAY-13. If no packets are shown the sender has not sent any weather packets the latest 10 day(s).
| Time | Temp. | Humidity | Pressure | Rain* | Wind** | Luminosity | Snow |
|---|---|---|---|---|---|---|---|
| 1777085229 | 7.78° C | 72% | 1007 hPa | 0 mm | - | - | - |
| 1777084629 | 8.89° C | 71% | 1007 hPa | 0 mm | - | - | - |
| 1777084030 | 8.89° C | 72% | 1007.1 hPa | 0 mm | - | - | - |
| 1777083431 | 8.89° C | 72% | 1007.3 hPa | 0 mm | - | - | - |
| 1777082829 | 8.89° C | 73% | 1007.5 hPa | 0 mm | - | - | - |
| 1777082229 | 8.89° C | 73% | 1007.9 hPa | 0 mm | - | - | - |
| 1777081630 | 9.44° C | 73% | 1008 hPa | 0 mm | - | - | - |
| 1777081030 | 9.44° C | 73% | 1008.2 hPa | 0 mm | - | - | - |
| 1777080430 | 9.44° C | 72% | 1008.3 hPa | 0 mm | - | - | - |
| 1777079829 | 9.44° C | 73% | 1008.3 hPa | 0 mm | - | - | - |
| 1777079230 | 9.44° C | 73% | 1008.6 hPa | 0 mm | - | - | - |
| 1777078630 | 8.89° C | 73% | 1008.8 hPa | 0 mm | - | - | - |
| 1777078030 | 8.89° C | 73% | 1008.9 hPa | 0 mm | - | - | - |
| 1777077430 | 8.89° C | 73% | 1009 hPa | 0 mm | - | - | - |
| 1777076830 | 8.89° C | 72% | 1009 hPa | 0 mm | - | - | - |
| 1777076230 | 9.44° C | 71% | 1009.3 hPa | 0 mm | - | - | - |
| 1777075630 | 10° C | 71% | 1009.3 hPa | 0 mm | - | - | - |
| 1777073830 | 10.56° C | 70% | 1009.9 hPa | 0 mm | - | - | - |
| 1777073230 | 10.56° C | 70% | 1009.9 hPa | 0 mm | - | - | - |
| 1777072630 | 10.56° C | 70% | 1010.1 hPa | 0 mm | - | - | - |
| 1777072030 | 11.11° C | 70% | 1010.3 hPa | 0 mm | - | - | - |
| 1777071430 | 10.56° C | 70% | 1010.3 hPa | 0 mm | - | - | - |
| 1777070830 | 10.56° C | 70% | 1010.5 hPa | 0 mm | - | - | - |
| 1777070230 | 10.56° C | 71% | 1010.6 hPa | 0 mm | - | - | - |
| 1777069630 | 10° C | 71% | 1010.7 hPa | 0 mm | - | - | - |
* Rain latest hour (hover to see other rain measurements)
** Current wind speed in m/s (hover to see current wind gust speed)